This is the latest recevied weather packets stored in our database for station/object KB1WCR. If no packets are shown the sender has not sent any weather packets the latest 10 day(s).
| Time | Temp. | Humidity | Pressure | Rain* | Wind** | Luminosity | Snow |
|---|---|---|---|---|---|---|---|
| 1778020302 | 20° C | 61% | 1004.2 hPa | 0 mm | - | 72 W/m² | - |
| 1778019993 | 20.56° C | 60% | 1004.3 hPa | 0 mm | - | 78 W/m² | - |
| 1778019690 | 20.56° C | 60% | 1004.1 hPa | 0 mm | - | 93 W/m² | - |
| 1778019387 | 20.56° C | 59% | 1004.1 hPa | 0 mm | - | 107 W/m² | - |
| 1778019083 | 20.56° C | 60% | 1004.1 hPa | 0 mm | - | 111 W/m² | - |
| 1778018781 | 21.11° C | 59% | 1004.1 hPa | 0 mm | - | 109 W/m² | - |
| 1778018478 | 21.11° C | 58% | 1004.3 hPa | 0 mm | - | 111 W/m² | - |
| 1778018176 | 21.11° C | 59% | 1004 hPa | 0 mm | - | 115 W/m² | - |
| 1778017874 | 21.11° C | 59% | 1004 hPa | 0 mm | - | 117 W/m² | - |
| 1778017572 | 21.11° C | 59% | 1003.8 hPa | 0 mm | - | 139 W/m² | - |
| 1778017268 | 21.67° C | 58% | 1004 hPa | 0 mm | - | 128 W/m² | - |
| 1778016966 | 22.22° C | 56% | 1003.8 hPa | 0 mm | - | 122 W/m² | - |
| 1778016662 | 22.22° C | 55% | 1003.7 hPa | 0 mm | - | 244 W/m² | - |
| 1778016359 | 22.22° C | 55% | 1003.8 hPa | 0 mm | - | 260 W/m² | - |
| 1778016056 | 22.22° C | 55% | 1003.6 hPa | 0 mm | - | 265 W/m² | - |
| 1778015753 | 22.78° C | 55% | 1003.5 hPa | 0 mm | - | 329 W/m² | - |
| 1778015450 | 22.22° C | 55% | 1003.2 hPa | 0 mm | - | 324 W/m² | - |
| 1778015146 | 22.78° C | 54% | 1003.5 hPa | 0 mm | - | 259 W/m² | - |
| 1778014844 | 22.78° C | 55% | 1003.5 hPa | 0 mm | - | 264 W/m² | - |
| 1778014541 | 22.78° C | 55% | 1003.5 hPa | 0 mm | - | 202 W/m² | - |
| 1778014239 | 23.33° C | 55% | 1003.4 hPa | 0 mm | - | 189 W/m² | - |
| 1778013936 | 23.89° C | 53% | 1003.5 hPa | 0 mm | - | 270 W/m² | - |
| 1778013633 | 23.33° C | 54% | 1003.4 hPa | 0 mm | - | 363 W/m² | - |
| 1778013330 | 23.33° C | 55% | 1003.6 hPa | 0 mm | - | 290 W/m² | - |
| 1778013027 | 23.33° C | 53% | 1003.7 hPa | 0 mm | - | 392 W/m² | - |
* Rain latest hour (hover to see other rain measurements)
** Current wind speed in m/s (hover to see current wind gust speed)